TimeEDT,TemperatureF,Dew PointF,Humidity,Sea Level PressureIn,VisibilityMPH,Wind Direction,Wind SpeedMPH,Gust SpeedMPH,PrecipitationIn,Events,Conditions,WindDirDegrees,DateUTC
12:53 AM,84.9,72.0,65,30.08,10.0,ENE,11.5,-,N/A,,Clear,70,2013-08-12 04:53:00
1:53 AM,84.9,72.0,65,30.08,10.0,ENE,8.1,-,N/A,,Clear,70,2013-08-12 05:53:00
2:53 AM,84.9,72.0,65,30.07,10.0,ENE,9.2,-,N/A,,Scattered Clouds,70,2013-08-12 06:53:00
3:53 AM,84.0,71.1,65,30.05,10.0,ENE,6.9,-,N/A,,Clear,70,2013-08-12 07:53:00
4:53 AM,84.0,71.1,65,30.04,10.0,ENE,8.1,-,0.00,,Partly Cloudy,70,2013-08-12 08:53:00
5:53 AM,84.9,71.1,63,30.05,10.0,ENE,6.9,-,N/A,,Mostly Cloudy,60,2013-08-12 09:53:00
6:53 AM,84.0,71.1,65,30.05,10.0,ENE,5.8,-,N/A,,Clear,70,2013-08-12 10:53:00
7:53 AM,84.9,73.9,69,30.06,10.0,ENE,8.1,-,N/A,,Scattered Clouds,70,2013-08-12 11:53:00
8:53 AM,84.9,71.1,63,30.06,10.0,ENE,11.5,-,N/A,,Partly Cloudy,60,2013-08-12 12:53:00
9:53 AM,-9999,-9999,N/A,30.08,-9999.0,North,-9999.0,-,N/A,,Unknown,0,2013-08-12 13:53:00
10:53 AM,89.1,72.0,57,30.07,10.0,NE,12.7,-,N/A,,Unknown,50,2013-08-12 14:53:00
11:53 AM,90.0,72.0,55,30.07,10.0,East,11.5,17.3,N/A,,Scattered Clouds,90,2013-08-12 15:53:00
12:53 PM,91.0,72.0,53,30.06,10.0,East,10.4,19.6,N/A,,Clear,80,2013-08-12 16:53:00
1:53 PM,91.0,73.9,57,30.05,10.0,East,9.2,18.4,N/A,,Clear,90,2013-08-12 17:53:00
2:53 PM,91.0,73.0,55,30.03,10.0,East,10.4,18.4,N/A,,Partly Cloudy,90,2013-08-12 18:53:00
3:53 PM,89.1,73.0,59,30.01,10.0,East,11.5,-,N/A,,Partly Cloudy,80,2013-08-12 19:53:00
4:53 PM,90.0,73.0,57,30.01,10.0,East,10.4,20.7,N/A,,Clear,80,2013-08-12 20:53:00
5:53 PM,87.1,72.0,61,30.01,10.0,ENE,12.7,18.4,N/A,,Clear,70,2013-08-12 21:53:00
6:53 PM,84.9,73.0,67,30.01,10.0,East,9.2,-,N/A,,Clear,80,2013-08-12 22:53:00
7:53 PM,82.9,73.0,72,30.00,10.0,ENE,10.4,17.3,N/A,,Clear,70,2013-08-12 23:53:00
8:53 PM,84.0,73.0,69,30.01,10.0,East,6.9,-,N/A,,Clear,80,2013-08-13 00:53:00
9:53 PM,84.9,73.9,69,30.02,10.0,East,6.9,-,N/A,,Clear,80,2013-08-13 01:53:00
10:53 PM,84.0,73.0,69,30.04,10.0,ENE,9.2,-,N/A,,Partly Cloudy,70,2013-08-13 02:53:00
11:53 PM,82.0,73.0,74,30.03,10.0,East,10.4,-,N/A,,Clear,80,2013-08-13 03:53:00